Lapse_Rate
3.4 3.6 1.8 1.9 2.4 2.4 1.7 1.0 0.9 2.2 2.8 3.1 3.3 3.3 2.7 1.8 1.7 1.7 2.0 2.3 2.2 2.1
3.3 3.7 1.8 2.3 2.2 2.6 2.3 2.2 2.0 2.6 2.6 3.2 3.5 3.3 2.8 2.2 2.4 2.1 2.4 2.5 2.1 2.3
3.3 3.3 3.1 3.6 2.6 3.4 3.1 3.1 2.7 2.9 2.8 2.7 3.0 3.5 3.0 2.9 2.6 2.8 2.5 2.6 2.4 2.6
3.5 3.9 3.6 4.0 3.6 3.7 3.3 3.5 3.8 3.4 3.3 3.3 3.4 3.5 2.8 2.7 2.8 3.1 2.9 2.6 2.5 2.9
3.3 4.6 4.3 4.4 4.0 3.3 3.5 3.5 4.0 3.8 3.6 3.6 3.9 3.5 3.4 3.6 3.4 3.0 3.1 2.4 2.3 3.0
3.7 4.3 4.1 4.5 4.6 4.1 3.8 4.0 4.5 3.6 3.7 3.9 3.5 3.5 3.0 3.3 3.5 3.1 2.8 2.6 2.3 2.7
3.6 2.7 4.2 3.7 5.5 4.7 4.3 3.9 4.1 4.0 3.3 3.0 3.4 3.3 3.8 3.5 3.2 3.1 2.3 2.2 2.3 2.4
2.9 3.1 2.7 2.9 3.6 2.4 3.6 3.2 2.9 2.8 3.3 3.1 3.4 4.3 3.3 3.3 3.3 2.4 1.9 2.2 2.3 1.3
3.5 3.2 3.5 3.3 3.8 2.6 3.5 3.2 2.6 2.5 3.0 3.3 3.4 3.6 3.9 3.1 2.8 3.0 2.7 2.6 2.2 2.2
3.7 3.1 3.4 3.2 2.4 3.0 4.2 2.9 2.8 2.8 2.0 1.1 2.6 4.1 4.1 3.7 2.7 2.2 2.4 2.1 2.2 3.8
2.7 2.2 2.3 2.9 2.6 2.9 1.8 1.7 1.7 1.7 2.1 1.8 2.5 3.1 3.7 3.6 2.3 2.0 2.1 2.6 2.9 3.5
2.5 2.1 2.1 2.0 1.6 1.1 1.3 1.9 2.4 1.9 1.5 1.1 1.9 3.2 3.6 3.5 2.5 2.3 2.5 3.2 3.7 3.8
2.9 2.2 1.5 1.4 1.2 1.6 2.1 2.4 3.8 2.4 0.8 2.2 1.9 3.2 3.0 3.2 3.2 2.7 3.0 3.7 4.1 5.3
1.4 0.8 1.3 2.0 1.8 3.2 4.4 2.8 1.7 1.7 2.1 2.1 1.5 1.7 2.8 3.3 3.7 3.6 3.7 3.9 5.0 5.9
Wind_Speed
12 11 15 16 11 10 9 8 8 8 11 10 12 10 10 4 4 5 5 6 5 4
12 12 11 16 16 10 11 9 11 12 7 11 11 11 9 4 5 6 4 5 6 4
12 12 12 12 15 14 12 14 14 12 11 8 9 10 8 5 6 6 4 4 6 5
12 12 14 13 14 14 14 14 13 12 12 10 9 7 7 7 7 6 6 6 7 6
12 13 14 13 14 15 16 14 13 14 13 11 9 8 9 8 7 7 7 6 7 5
14 13 14 13 14 15 16 14 13 14 13 12 10 10 8 8 8 8 7 6 6 4
13 14 12 14 11 13 14 15 14 13 13 13 10 11 10 10 9 8 7 7 6 6
11 11 13 13 11 16 12 14 14 15 13 12 11 8 10 10 8 8 7 6 7 7
14 15 13 14 9 15 13 13 13 15 16 12 8 16 15 10 6 7 7 7 6 7
14 15 13 14 15 14 14 15 13 11 12 13 11 17 17 15 6 6 6 6 5 3
15 16 15 14 14 11 13 15 12 12 11 12 10 18 16 14 5 6 6 5 5 4
15 17 16 15 14 13 14 12 10 12 10 13 9 16 15 10 5 6 6 5 5 5
13 14 15 15 15 12 12 13 10 10 10 15 10 15 12 7 4 4 4 5 5 6
14 14 15 14 13 11 12 11 12 11 9 9 9 9 12 8 3 3 4 4 2 3
Wind_Direction
190 184 168 159 163 165 164 156 146 151 143 147 141 134 122 112 108 96 89 88 84 86
181 185 172 163 153 161 152 155 152 151 146 143 141 131 129 130 125 107 102 93 91 90
181 176 166 168 154 159 156 159 155 153 142 138 138 138 132 134 109 108 105 100 95 85
183 180 168 172 160 156 150 156 153 143 139 139 136 131 125 114 110 112 102 93 92 74
176 178 170 168 163 154 151 151 147 141 135 132 129 125 122 116 124 123 112 110 104 107
169 172 164 163 158 147 145 141 138 131 128 123 121 124 111 114 112 105 102 101 98 90
167 158 156 142 151 131 133 132 133 124 116 114 117 115 117 111 107 104 98 95 93 72
141 136 129 127 143 119 128 132 124 118 117 114 113 116 110 113 122 121 116 111 106 89
144 136 137 123 135 117 142 125 118 131 128 125 121 119 118 109 112 120 130 122 111 129
134 124 124 129 125 124 135 116 117 108 114 104 110 119 123 125 124 115 117 110 113 115
127 123 122 119 121 126 113 114 122 113 118 117 124 123 119 117 110 109 100 104 105 106
135 131 129 133 134 133 118 113 119 118 130 112 125 125 125 121 122 114 121 121 114 93
141 133 131 137 133 130 125 124 127 119 106 124 127 125 114 112 109 126 129 128 142 147
136 134 133 126 116 122 118 123 115 114 117 127 112 122 113 93 124 144 128 126 134 131